This demonstration page uses our WeatherBlox Daily Observations layout. Learn more.

Left ArrowRight Arrow

Hourly Observations for February 8, 2016

Temp ( °F °C ) Dew Point ( °F °C ) Humidity (%) Winds ( mph kmh ) Pressure ( in mb ) Visibility ( mi km ) Precip ( " mm )
12:51 am 00:51 Clear 40 4.4 22 -5.6 49 49 E 6 9 30.22 1023 10 16.0934 N/A
1:51 am 01:51 Clear 36 2.2 21 -6.1 55 55 WNW 6 9 30.24 1024 10 16.0934 N/A
2:51 am 02:51 Clear 35 1.7 20 -6.7 54 54 N 5 7 30.24 1024 10 16.0934 N/A
3:51 am 03:51 Clear 34 1.1 20 -6.7 56 56 SE 7 11 30.24 1024 10 16.0934 N/A
4:51 am 04:51 Clear 35 1.7 20 -6.7 54 54 SE 5 7 30.25 1025 10 16.0934 N/A
5:51 am 05:51 Clear 32 undefined 20 -6.7 61 61 N N/A 30.29 1026 10 16.0934 N/A
6:51 am 06:51 Clear 33 0.6 20 -6.7 58 58 E 6 9 30.32 1027 10 16.0934 N/A
7:51 am 07:51 Sunny 45 7.2 22 -5.6 40 40 ESE 12 19 30.32 1027 10 16.0934 N/A
8:51 am 08:51 Sunny 51 10.6 22 -5.6 32 32 E 10 17 30.33 1027 10 16.0934 N/A
9:51 am 09:51 Sunny 57 13.9 22 -5.6 26 26 ESE 12 19 30.34 1027 10 16.0934 N/A
10:51 am 10:51 Sunny 61 16.1 20 -6.7 20 20 SE 8 13 30.32 1027 10 16.0934 N/A
11:51 am 11:51 Sunny 63 17.2 20 -6.7 19 19 SE 7 11 30.29 1026 10 16.0934 N/A
12:51 pm 12:51 Sunny 67 19.4 20 -6.7 17 17 SSE 7 11 30.23 1024 10 16.0934 N/A
1:51 pm 13:51 Sunny 69 20.6 20 -6.7 15 15 S 9 15 30.19 1022 10 16.0934 N/A
2:51 pm 14:51 Sunny 70 21.1 21 -6.1 16 16 SSE 12 19 30.16 1022 10 16.0934 N/A
3:51 pm 15:51 Sunny 72 22.2 20 -6.7 14 14 ESE 6 9 30.15 1021 10 16.0934 N/A
4:51 pm 16:51 Sunny 71 21.7 20 -6.7 14 14 N N/A 30.15 1021 10 16.0934 N/A
5:51 pm 17:51 Sunny 68 20 21 -6.1 17 17 N N/A 30.16 1021 10 16.0934 N/A
6:51 pm 18:51 Clear 56 13.3 23 -5 28 28 NE 7 11 30.18 1022 10 16.0934 N/A
7:51 pm 19:51 Clear 56 13.3 22 -5.6 27 27 SSE 6 9 30.18 1022 10 16.0934 N/A
8:51 pm 20:51 Clear 49 9.4 24 -4.4 38 38 E 5 7 30.19 1022 10 16.0934 N/A
9:51 pm 21:51 Clear 49 9.4 25 -3.9 39 39 SSE 9 15 30.19 1023 10 16.0934 N/A
10:51 pm 22:51 Clear 51 10.6 24 -4.4 35 35 ESE 8 13 30.21 1023 10 16.0934 N/A
11:51 pm 23:51 Clear 48 8.9 23 -5 37 37 SE 7 11 30.22 1023 10 16.0934 N/A

Powered by AerisWeather